FENGYUN 1C DEB, 31087

Orbit data source: Space-Track

FENGYUN 1C DEB, 31087 is space debris in SSO originally from a launch on Mon, 10 May 1999 UTC launched from the Taiyaun Space Center, China (TSC). Fengyun 1C debris stems from the Chinese weather satellite Fengyun-1C, which was intentionally destroyed by a Chinese anti-satellite missile in 2007. This event dramatically increased the amount of space debris, with thousands of trackable fragments posing hazards to satellites and human spaceflight. The Fengyun 1C debris cloud has become a focal point in discussions about space sustainability and the need for international regulations to prevent the creation of new debris.

Loading next visibility...
Identifier
31087, 1999-025BGH
Orbit
SSO
Country
Flag of CNCN / PRC
Related business
Manufacturer
Unknown
Mission
Spacecraft
Bus & Motor
Unknown
Mass
Unknown
Launch date (UTC)
1999-05-10 (27 years ago)
Launch vehicle
Unknown
Launch site
Taiyaun Space Center, China (TSC)
Object type
Payload
Rocket body
Debris
Shape & HBR
Unknown shape, 0.1 m
Radar Cross Section
Small (<0.1 m²)

Expand to show TLE details & history
Last TLE update: 22 hours ago

TLE from 22 hours ago
0 FENGYUN 1C DEB
1 31087U 99025BGH 26235.53931738  .00001693  00000-0  28450-3 0  9992
2 31087  98.0873 255.6147 0167477 214.3349 298.9125 14.62163260 24771
Epoch: 2026-08-23T12:56Z
TLE epoch observation values (Epoch: 2026-08-23T12:56:37.021Z)
Latitude
28.18645°
Longitude
-86.03009°
Altitude
634.053 km
Speed
7.573 km/s
True Right ascension
05h 19m 49s
True Declination
28° 02' 28"
Sunlit
Object was in daylight at epoch
Visualization orbit readout
Latitude
Unknown
Longitude
Unknown
Altitude
Unknown
Speed
Unknown
Apparent Right ascension
Unknown
Apparent Declination
Unknown
Sunlit
N/A
Visualization observer readout
Local Sidereal Time
01:58:53
Azimuth
Unknown
Elevation
Unknown
Doppler factor
Unknown
Orbital elements
Apogee altitude
801.532 km
Perigee altitude
565.007 km
Semi-major axis
7,061.407 km
Eccentricity
0.01675
Inclination
98.0873°
RAAN
255.6147°
Arg. of periapsis
214.3349°
True anomaly
297.21564°
Mean anomaly
298.9125°
Eccentric anomaly
298.06577°
Mean motion
3.65769 °/min
Orbital period
98.42 mins
BSTAR
0.0002845
Loading maneuver chart data...
Computing Atmospheric mass density...

Documentation

Showing up to 5 results
|